TimeEDT,TemperatureF,Dew PointF,Humidity,Sea Level PressureIn,VisibilityMPH,Wind Direction,Wind SpeedMPH,Gust SpeedMPH,PrecipitationIn,Events,Conditions,WindDirDegrees,DateUTC
12:54 AM,75.0,73.0,94,30.29,10.0,Calm,Calm,-,N/A,,Mostly Cloudy,0,2013-07-14 04:54:00
1:54 AM,75.0,73.0,94,30.28,9.0,Calm,Calm,-,N/A,,Mostly Cloudy,0,2013-07-14 05:54:00
2:54 AM,73.9,73.0,97,30.28,7.0,East,3.5,-,N/A,,Scattered Clouds,100,2013-07-14 06:54:00
3:26 AM,73.4,73.4,100,30.28,6.0,Calm,Calm,-,N/A,,Mostly Cloudy,0,2013-07-14 07:26:00
3:54 AM,72.0,71.1,97,30.29,5.0,Calm,Calm,-,N/A,Fog,Patches of Fog,0,2013-07-14 07:54:00
4:54 AM,71.1,70.0,96,30.29,4.0,Calm,Calm,-,N/A,Fog,Patches of Fog,0,2013-07-14 08:54:00
5:43 AM,71.6,71.6,100,30.30,3.0,Calm,Calm,-,N/A,Fog,Patches of Fog,0,2013-07-14 09:43:00
5:54 AM,72.0,71.1,97,30.30,2.5,Calm,Calm,-,N/A,Fog,Patches of Fog,0,2013-07-14 09:54:00
6:09 AM,73.4,71.6,94,30.31,2.5,Calm,Calm,-,N/A,Fog,Patches of Fog,0,2013-07-14 10:09:00
6:54 AM,75.0,73.9,96,30.31,5.0,Calm,Calm,-,N/A,,Overcast,0,2013-07-14 10:54:00
7:54 AM,75.0,73.9,96,30.32,5.0,SW,3.5,-,N/A,,Overcast,220,2013-07-14 11:54:00
8:10 AM,75.2,73.4,94,30.33,6.0,SSW,4.6,-,N/A,,Overcast,210,2013-07-14 12:10:00
8:54 AM,75.9,73.9,94,30.33,7.0,Calm,Calm,-,N/A,,Overcast,0,2013-07-14 12:54:00
9:54 AM,78.1,73.9,87,30.35,10.0,South,3.5,-,N/A,,Mostly Cloudy,190,2013-07-14 13:54:00
10:11 AM,78.8,73.4,83,30.35,10.0,Variable,3.5,-,N/A,,Mostly Cloudy,0,2013-07-14 14:11:00
10:37 AM,82.4,73.4,74,30.34,10.0,South,4.6,-,N/A,,Mostly Cloudy,170,2013-07-14 14:37:00
10:54 AM,81.0,73.0,77,30.34,10.0,WSW,3.5,-,N/A,,Mostly Cloudy,240,2013-07-14 14:54:00
11:54 AM,84.0,71.1,65,30.34,10.0,SSW,4.6,-,N/A,,Mostly Cloudy,200,2013-07-14 15:54:00
12:54 PM,84.9,70.0,61,30.33,10.0,SSW,4.6,-,N/A,,Mostly Cloudy,200,2013-07-14 16:54:00
1:54 PM,87.1,70.0,57,30.31,10.0,Calm,Calm,-,N/A,,Mostly Cloudy,0,2013-07-14 17:54:00
2:54 PM,87.1,70.0,57,30.30,10.0,Variable,4.6,-,N/A,,Mostly Cloudy,0,2013-07-14 18:54:00
3:54 PM,88.0,71.1,57,30.29,10.0,Variable,3.5,-,N/A,,Mostly Cloudy,0,2013-07-14 19:54:00
4:54 PM,86.0,73.9,67,30.28,10.0,SSE,6.9,-,N/A,,Mostly Cloudy,160,2013-07-14 20:54:00
5:54 PM,84.9,73.0,67,30.27,10.0,SSE,8.1,-,N/A,,Scattered Clouds,150,2013-07-14 21:54:00
6:54 PM,84.9,72.0,65,30.27,10.0,South,5.8,-,N/A,,Scattered Clouds,170,2013-07-14 22:54:00
7:54 PM,82.9,72.0,69,30.28,10.0,SSE,3.5,-,N/A,,Scattered Clouds,150,2013-07-14 23:54:00
8:54 PM,80.1,71.1,74,30.28,10.0,South,4.6,-,N/A,,Scattered Clouds,170,2013-07-15 00:54:00
9:54 PM,79.0,69.1,72,30.29,10.0,Calm,Calm,-,N/A,,Partly Cloudy,0,2013-07-15 01:54:00
10:54 PM,77.0,70.0,79,30.30,10.0,Calm,Calm,-,N/A,,Scattered Clouds,0,2013-07-15 02:54:00
11:54 PM,75.9,70.0,82,30.30,10.0,Calm,Calm,-,N/A,,Scattered Clouds,0,2013-07-15 03:54:00